TimeCDT,TemperatureF,Dew PointF,Humidity,Sea Level PressureIn,VisibilityMPH,Wind Direction,Wind SpeedMPH,Gust SpeedMPH,PrecipitationIn,Events,Conditions,WindDirDegrees,DateUTC
12:52 AM,55.9,51.1,84,29.64,10.0,West,10.4,-,0.00,,Overcast,280,2012-10-16 05:52:00
1:52 AM,55.9,50.0,80,29.62,10.0,West,8.1,-,N/A,,Mostly Cloudy,280,2012-10-16 06:52:00
2:52 AM,55.4,50.0,82,29.62,10.0,WNW,6.9,-,N/A,,Mostly Cloudy,290,2012-10-16 07:52:00
3:52 AM,54.0,48.9,83,29.59,10.0,Calm,Calm,-,N/A,,Mostly Cloudy,0,2012-10-16 08:52:00
4:52 AM,53.1,48.0,83,29.60,10.0,West,4.6,-,N/A,,Overcast,270,2012-10-16 09:52:00
5:52 AM,52.0,48.0,86,29.59,10.0,West,6.9,-,N/A,,Mostly Cloudy,270,2012-10-16 10:52:00
6:52 AM,50.0,46.4,87,29.58,10.0,WSW,3.5,-,N/A,,Clear,250,2012-10-16 11:52:00
7:52 AM,48.9,45.0,86,29.57,10.0,SW,3.5,-,N/A,,Clear,220,2012-10-16 12:52:00
8:52 AM,48.0,45.0,89,29.57,10.0,WSW,4.6,-,N/A,,Clear,240,2012-10-16 13:52:00
9:52 AM,53.1,46.0,77,29.54,10.0,Calm,Calm,-,N/A,,Clear,0,2012-10-16 14:52:00
10:52 AM,55.9,46.9,72,29.52,10.0,SW,9.2,-,N/A,,Clear,230,2012-10-16 15:52:00
11:52 AM,60.1,46.9,62,29.49,10.0,SSW,5.8,-,N/A,,Clear,200,2012-10-16 16:52:00
12:52 PM,64.0,46.0,52,29.44,10.0,South,4.6,-,N/A,,Clear,180,2012-10-16 17:52:00
1:52 PM,70.0,45.0,41,29.40,10.0,SSW,10.4,-,N/A,,Clear,210,2012-10-16 18:52:00
2:52 PM,69.1,43.0,39,29.36,10.0,SSW,15.0,-,N/A,,Clear,200,2012-10-16 19:52:00
3:52 PM,69.1,42.1,38,29.33,10.0,SW,6.9,-,N/A,,Clear,220,2012-10-16 20:52:00
4:52 PM,66.9,43.0,42,29.31,10.0,SSW,8.1,-,N/A,,Clear,200,2012-10-16 21:52:00
5:52 PM,64.9,46.0,50,29.29,10.0,Calm,Calm,-,N/A,,Mostly Cloudy,0,2012-10-16 22:52:00
6:52 PM,59.0,46.0,62,29.31,10.0,South,4.6,-,N/A,,Mostly Cloudy,170,2012-10-16 23:52:00
7:52 PM,62.1,46.0,56,29.31,10.0,West,11.5,-,N/A,,Mostly Cloudy,280,2012-10-17 00:52:00
8:52 PM,57.9,50.0,75,29.29,10.0,NW,5.8,-,0.00,Rain,Light Rain,310,2012-10-17 01:52:00
9:52 PM,55.0,51.1,86,29.28,10.0,Calm,Calm,-,0.02,Rain,Light Rain,0,2012-10-17 02:52:00
10:52 PM,55.0,52.0,89,29.29,10.0,WNW,5.8,-,0.02,Rain,Light Rain,290,2012-10-17 03:52:00
11:52 PM,54.0,52.0,93,29.30,10.0,WSW,5.8,-,0.02,Rain,Light Rain,240,2012-10-17 04:52:00